| time (UTC) | temp F | wind direction | speed MPH | gust MPH | rain 1hr in | rain 24hr in | rain mn in | humidity % | barometer mb |
| 20260906082505 | 85 | 348 | 3.0 | 10.0 | 0.00 | 0.00 | 0.00 | 40 | 1017.9 |
| 20260906082009 | 85 | 21 | 5.0 | 10.0 | 0.00 | 0.00 | 0.00 | 41 | 1017.9 |
| 20260906081534 | 84 | 307 | 4.0 | 8.0 | 0.00 | 0.00 | 0.00 | 42 | 1018.0 |
| 20260906081010 | 84 | 342 | 4.0 | 9.0 | 0.00 | 0.00 | 0.00 | 44 | 1018.1 |
| 20260906080512 | 84 | 344 | 5.0 | 9.0 | 0.00 | 0.00 | 0.00 | 42 | 1018.0 |
| 20260906080026 | 84 | 336 | 4.0 | 8.0 | 0.00 | 0.00 | 0.00 | 41 | 1018.0 |
| 20260906075514 | 85 | 338 | 4.0 | 8.0 | 0.00 | 0.00 | 0.00 | 41 | 1018.1 |
| 20260906075014 | 84 | 296 | 3.0 | 9.0 | 0.00 | 0.00 | 0.00 | 40 | 1018.1 |
| 20260906074530 | 84 | 313 | 5.0 | 10.0 | 0.00 | 0.00 | 0.00 | 39 | 1018.2 |
| 20260906074016 | 83 | 321 | 3.0 | 10.0 | 0.00 | 0.00 | 0.00 | 38 | 1018.1 |
| 20260906073515 | 82 | 346 | 3.0 | 6.0 | 0.00 | 0.00 | 0.00 | 41 | 1018.0 |
| 20260906073047 | 81 | 347 | 2.0 | 8.0 | 0.00 | 0.00 | 0.00 | 45 | 1017.9 |
| 20260906072517 | 80 | 327 | 3.0 | 8.0 | 0.00 | 0.00 | 0.00 | 50 | 1017.9 |
| 20260906072015 | 80 | 343 | 3.0 | 8.0 | 0.00 | 0.00 | 0.00 | 52 | 1017.8 |
| 20260906071530 | 79 | 13 | 4.0 | 7.0 | 0.00 | 0.00 | 0.00 | 54 | 1017.9 |
| 20260906071008 | 79 | 331 | 4.0 | 8.0 | 0.00 | 0.00 | 0.00 | 54 | 1017.8 |
| 20260906070507 | 79 | 360 | 3.0 | 8.0 | 0.00 | 0.00 | 0.00 | 54 | 1017.8 |
| 20260906070035 | 79 | 325 | 3.0 | 6.0 | 0.00 | 0.00 | 0.00 | 55 | 1017.8 |
| 20260906065512 | 79 | 352 | 2.0 | 5.0 | 0.00 | 0.00 | 0.00 | 56 | 1017.7 |
| 20260906065014 | 78 | 360 | 1.0 | 5.0 | 0.00 | 0.00 | 0.00 | 59 | 1017.6 |
| 20260906064503 | 78 | 84 | 0.0 | 4.0 | 0.00 | 0.00 | 0.00 | 63 | 1017.5 |
| 20260906064003 | 77 | 83 | 1.0 | 5.0 | 0.00 | 0.00 | 0.00 | 63 | 1017.5 |
| 20260906063504 | 77 | 360 | 2.0 | 5.0 | 0.00 | 0.00 | 0.00 | 62 | 1017.5 |
| 20260906063010 | 78 | 360 | 3.0 | 5.0 | 0.00 | 0.00 | 0.00 | 60 | 1017.5 |
| 20260906062502 | 79 | 198 | 2.0 | 5.0 | 0.00 | 0.00 | 0.00 | 58 | 1017.4 |
| 20260906062007 | 79 | 202 | 1.0 | 4.0 | 0.00 | 0.00 | 0.00 | 58 | 1017.4 |
| 20260906061510 | 79 | 44 | 0.0 | 3.0 | 0.00 | 0.00 | 0.00 | 57 | 1017.3 |
| 20260906061003 | 79 | 78 | 0.0 | 4.0 | 0.00 | 0.00 | 0.00 | 57 | 1017.3 |
| 20260906060506 | 79 | 57 | 0.0 | 4.0 | 0.00 | 0.00 | 0.00 | 57 | 1017.3 |
| 20260906060009 | 79 | 205 | 2.0 | 4.0 | 0.00 | 0.00 | 0.00 | 57 | 1017.4 |
| 20260906055506 | 78 | 42 | 1.0 | 4.0 | 0.00 | 0.00 | 0.00 | 57 | 1017.4 |
| 20260906055003 | 78 | 84 | 0.0 | 4.0 | 0.00 | 0.00 | 0.00 | 58 | 1017.4 |
| 20260906054515 | 79 | 72 | 1.0 | 4.0 | 0.00 | 0.00 | 0.00 | 57 | 1017.4 |
| 20260906054003 | 79 | 46 | 0.0 | 3.0 | 0.00 | 0.00 | 0.00 | 58 | 1017.4 |
| 20260906053504 | 78 | 360 | 1.0 | 3.0 | 0.00 | 0.00 | 0.00 | 57 | 1017.4 |
| 20260906053004 | 78 | 58 | 0.0 | 0.0 | 0.00 | 0.00 | 0.00 | 58 | 1017.2 |
| 20260906052504 | 78 | 360 | 0.0 | 0.0 | 0.00 | 0.00 | 0.00 | 59 | 1017.3 |
| 20260906052004 | 77 | 360 | 0.0 | 0.0 | 0.00 | 0.00 | 0.00 | 60 | 1017.2 |
| 20260906051518 | 77 | 12 | 0.0 | 0.0 | 0.00 | 0.00 | 0.00 | 61 | 1017.1 |
| 20260906051005 | 77 | 360 | 0.0 | 0.0 | 0.00 | 0.00 | 0.00 | 61 | 1017.1 |
| 20260906050507 | 77 | 360 | 0.0 | 3.0 | 0.00 | 0.00 | 0.00 | 62 | 1017.0 |
| 20260906050013 | 76 | 360 | 0.0 | 3.0 | 0.00 | 0.00 | 0.00 | 62 | 1017.0 |
| 20260906045508 | 76 | 360 | 1.0 | 3.0 | 0.00 | 0.00 | 0.00 | 61 | 1017.1 |
| 20260906045008 | 75 | 360 | 1.0 | 2.0 | 0.00 | 0.00 | 0.00 | 57 | 1017.0 |
| 20260906044512 | 74 | 360 | 0.0 | 1.0 | 0.00 | 0.00 | 0.00 | 56 | 1016.9 |
| 20260906044009 | 74 | 360 | 0.0 | 1.0 | 0.00 | 0.00 | 0.00 | 53 | 1016.8 |
| 20260906043506 | 73 | 239 | 0.0 | 1.0 | 0.00 | 0.00 | 0.00 | 45 | 1016.7 |
| 20260906043018 | 73 | 238 | 0.0 | 2.0 | 0.00 | 0.00 | 0.00 | 44 | 1016.7 |
| 20260906042503 | 73 | 238 | 0.0 | 4.0 | 0.00 | 0.00 | 0.00 | 44 | 1016.7 |
| 20260906042004 | 73 | 274 | 0.0 | 4.0 | 0.00 | 0.00 | 0.00 | 44 | 1016.5 |
| 20260906041508 | 73 | 360 | 1.0 | 3.0 | 0.00 | 0.00 | 0.00 | 44 | 1016.5 |
| 20260906041003 | 73 | 360 | 1.0 | 3.0 | 0.00 | 0.00 | 0.00 | 44 | 1016.6 |
| 20260906040505 | 73 | 360 | 0.0 | 3.0 | 0.00 | 0.00 | 0.00 | 44 | 1016.6 |
| 20260906040014 | 73 | 360 | 1.0 | 4.0 | 0.00 | 0.00 | 0.00 | 44 | 1016.6 |
| 20260906035508 | 73 | 360 | 1.0 | 4.0 | 0.00 | 0.00 | 0.00 | 44 | 1016.5 |
| 20260906035009 | 73 | 360 | 1.0 | 3.0 | 0.00 | 0.00 | 0.00 | 45 | 1016.5 |
| 20260906034524 | 73 | 360 | 0.0 | 2.0 | 0.00 | 0.00 | 0.00 | 45 | 1016.5 |
| 20260906034008 | 73 | 360 | 0.0 | 2.0 | 0.00 | 0.00 | 0.00 | 44 | 1016.5 |
| 20260906033506 | 73 | 360 | 0.0 | 2.0 | 0.00 | 0.00 | 0.00 | 44 | 1016.5 |
| 20260906033015 | 74 | 360 | 0.0 | 2.0 | 0.00 | 0.00 | 0.00 | 45 | 1016.5 |
| 20260906032508 | 74 | 360 | 0.0 | 1.0 | 0.00 | 0.00 | 0.00 | 45 | 1016.5 |
| 20260906032008 | 74 | 360 | 0.0 | 0.0 | 0.00 | 0.00 | 0.00 | 45 | 1016.5 |
| 20260906031516 | 74 | 360 | 0.0 | 0.0 | 0.00 | 0.00 | 0.00 | 45 | 1016.4 |
| 20260906031005 | 74 | 360 | 0.0 | 1.0 | 0.00 | 0.00 | 0.00 | 46 | 1016.4 |
| 20260906030504 | 74 | 360 | 0.0 | 2.0 | 0.00 | 0.00 | 0.00 | 46 | 1016.3 |
| 20260906030011 | 74 | 360 | 0.0 | 2.0 | 0.00 | 0.00 | 0.00 | 44 | 1016.4 |
| 20260906025505 | 74 | 360 | 0.0 | 2.0 | 0.00 | 0.00 | 0.00 | 44 | 1016.4 |
| 20260906025005 | 74 | 360 | 0.0 | 2.0 | 0.00 | 0.00 | 0.00 | 44 | 1016.3 |
| 20260906024518 | 74 | 360 | 0.0 | 1.0 | 0.00 | 0.00 | 0.00 | 44 | 1016.3 |
| 20260906024006 | 75 | 360 | 0.0 | 1.0 | 0.00 | 0.00 | 0.00 | 44 | 1016.3 |
| 20260906023510 | 75 | 360 | 0.0 | 1.0 | 0.00 | 0.00 | 0.00 | 44 | 1016.3 |
| 20260906023016 | 75 | 360 | 0.0 | 1.0 | 0.00 | 0.00 | 0.00 | 43 | 1016.3 |
| 20260906022510 | 75 | 360 | 0.0 | 1.0 | 0.00 | 0.00 | 0.00 | 43 | 1016.3 |
| 20260906022009 | 75 | 360 | 0.0 | 1.0 | 0.00 | 0.00 | 0.00 | 43 | 1016.3 |
| 20260906021518 | 76 | 360 | 0.0 | 1.0 | 0.00 | 0.00 | 0.00 | 43 | 1016.2 |
| 20260906021010 | 76 | 360 | 0.0 | 1.0 | 0.00 | 0.00 | 0.00 | 42 | 1016.2 |
| 20260906020510 | 76 | 360 | 0.0 | 1.0 | 0.00 | 0.00 | 0.00 | 42 | 1016.2 |
| 20260906020021 | 76 | 360 | 0.0 | 1.0 | 0.00 | 0.00 | 0.00 | 42 | 1016.1 |
| 20260906015505 | 76 | 260 | 0.0 | 2.0 | 0.00 | 0.00 | 0.00 | 42 | 1016.2 |
| 20260906015007 | 76 | 259 | 0.0 | 2.0 | 0.00 | 0.00 | 0.00 | 41 | 1016.2 |
| 20260906014517 | 76 | 259 | 0.0 | 2.0 | 0.00 | 0.00 | 0.00 | 41 | 1016.2 |
| 20260906014005 | 76 | 259 | 0.0 | 2.0 | 0.00 | 0.00 | 0.00 | 41 | 1016.2 |
| 20260906013506 | 76 | 259 | 1.0 | 2.0 | 0.00 | 0.00 | 0.00 | 41 | 1016.2 |
| 20260906013021 | 76 | 259 | 0.0 | 2.0 | 0.00 | 0.00 | 0.00 | 42 | 1016.1 |
| 20260906012514 | 76 | 259 | 0.0 | 4.0 | 0.00 | 0.00 | 0.00 | 42 | 1016.1 |
| 20260906012011 | 76 | 267 | 0.0 | 4.0 | 0.00 | 0.00 | 0.00 | 42 | 1016.2 |
| 20260906011524 | 76 | 262 | 0.0 | 2.0 | 0.00 | 0.00 | 0.00 | 42 | 1016.1 |
| 20260906011015 | 76 | 260 | 0.0 | 3.0 | 0.00 | 0.00 | 0.00 | 42 | 1016.1 |
| 20260906010509 | 76 | 260 | 0.0 | 3.0 | 0.00 | 0.00 | 0.00 | 42 | 1016.1 |
| 20260906010023 | 76 | 290 | 0.0 | 2.0 | 0.00 | 0.00 | 0.00 | 42 | 1016.2 |
| 20260906005510 | 76 | 290 | 0.0 | 4.0 | 0.00 | 0.00 | 0.00 | 42 | 1016.0 |
| 20260906005012 | 76 | 290 | 0.0 | 4.0 | 0.00 | 0.00 | 0.00 | 42 | 1016.1 |
| 20260906004510 | 77 | 271 | 1.0 | 4.0 | 0.00 | 0.00 | 0.00 | 42 | 1016.1 |
| 20260906004009 | 77 | 265 | 1.0 | 3.0 | 0.00 | 0.00 | 0.00 | 42 | 1016.1 |
| 20260906003506 | 77 | 289 | 0.0 | 3.0 | 0.00 | 0.00 | 0.00 | 42 | 1016.1 |
| 20260906003016 | 77 | 289 | 0.0 | 1.0 | 0.00 | 0.00 | 0.00 | 42 | 1016.1 |
| 20260906002509 | 77 | 289 | 0.0 | 3.0 | 0.00 | 0.00 | 0.00 | 42 | 1016.2 |
| 20260906002009 | 77 | 289 | 0.0 | 3.0 | 0.00 | 0.00 | 0.00 | 42 | 1016.2 |
| 20260906001520 | 77 | 286 | 0.0 | 5.0 | 0.00 | 0.00 | 0.00 | 42 | 1016.2 |
| 20260906001013 | 77 | 285 | 1.0 | 6.0 | 0.00 | 0.00 | 0.00 | 43 | 1016.2 |
| 20260906000512 | 77 | 287 | 2.0 | 6.0 | 0.00 | 0.00 | 0.00 | 43 | 1016.2 |
| 20260906000025 | 77 | 285 | 0.0 | 3.0 | 0.00 | 0.00 | 0.00 | 43 | 1016.3 |
| 20260905235512 | 77 | 294 | 1.0 | 4.0 | 0.00 | 0.00 | 0.00 | 43 | 1016.3 |
| 20260905235011 | 77 | 360 | 0.0 | 4.0 | 0.00 | 0.00 | 0.00 | 43 | 1016.3 |
| 20260905234526 | 77 | 360 | 1.0 | 4.0 | 0.00 | 0.00 | 0.00 | 43 | 1016.2 |
| 20260905234012 | 77 | 360 | 1.0 | 6.0 | 0.00 | 0.00 | 0.00 | 43 | 1016.0 |
| 20260905233514 | 77 | 360 | 0.0 | 6.0 | 0.00 | 0.00 | 0.00 | 43 | 1016.1 |
| 20260905233014 | 77 | 360 | 1.0 | 5.0 | 0.00 | 0.00 | 0.00 | 43 | 1016.1 |
| 20260905232509 | 77 | 360 | 0.0 | 1.0 | 0.00 | 0.00 | 0.00 | 43 | 1016.2 |
| 20260905232009 | 77 | 360 | 0.0 | 2.0 | 0.00 | 0.00 | 0.00 | 43 | 1016.2 |
| 20260905231520 | 77 | 360 | 0.0 | 2.0 | 0.00 | 0.00 | 0.00 | 42 | 1016.2 |
| 20260905231010 | 78 | 360 | 0.0 | 3.0 | 0.00 | 0.00 | 0.00 | 42 | 1016.2 |
| 20260905230510 | 78 | 360 | 1.0 | 3.0 | 0.00 | 0.00 | 0.00 | 42 | 1016.2 |
| 20260905230028 | 78 | 360 | 0.0 | 1.0 | 0.00 | 0.00 | 0.00 | 42 | 1016.3 |
| 20260905225513 | 78 | 256 | 0.0 | 2.0 | 0.00 | 0.00 | 0.00 | 42 | 1016.3 |
| 20260905225014 | 79 | 360 | 0.0 | 4.0 | 0.00 | 0.00 | 0.00 | 41 | 1016.4 |
| 20260905224535 | 79 | 360 | 0.0 | 4.0 | 0.00 | 0.00 | 0.00 | 40 | 1016.4 |
| 20260905224013 | 79 | 360 | 0.0 | 4.0 | 0.00 | 0.00 | 0.00 | 40 | 1016.4 |
| 20260905223517 | 79 | 360 | 1.0 | 4.0 | 0.00 | 0.00 | 0.00 | 40 | 1016.3 |
| 20260905223033 | 79 | 360 | 1.0 | 5.0 | 0.00 | 0.00 | 0.00 | 39 | 1016.4 |
| 20260905222518 | 79 | 360 | 1.0 | 5.0 | 0.00 | 0.00 | 0.00 | 38 | 1016.3 |
| 20260905222016 | 80 | 360 | 2.0 | 6.0 | 0.00 | 0.00 | 0.00 | 38 | 1016.3 |
| 20260905221518 | 80 | 360 | 3.0 | 8.0 | 0.00 | 0.00 | 0.00 | 37 | 1016.4 |
| 20260905221008 | 80 | 360 | 4.0 | 9.0 | 0.00 | 0.00 | 0.00 | 37 | 1016.4 |
| 20260905220513 | 80 | 360 | 4.0 | 9.0 | 0.00 | 0.00 | 0.00 | 36 | 1016.4 |
| 20260905220022 | 80 | 360 | 4.0 | 9.0 | 0.00 | 0.00 | 0.00 | 35 | 1016.4 |
| 20260905215514 | 80 | 360 | 3.0 | 9.0 | 0.00 | 0.00 | 0.00 | 35 | 1016.3 |
| 20260905215015 | 80 | 360 | 4.0 | 9.0 | 0.00 | 0.00 | 0.00 | 35 | 1016.3 |
| 20260905214525 | 80 | 360 | 3.0 | 9.0 | 0.00 | 0.00 | 0.00 | 35 | 1016.3 |
| 20260905214004 | 80 | 360 | 4.0 | 9.0 | 0.00 | 0.00 | 0.00 | 35 | 1016.3 |
| 20260905213504 | 80 | 360 | 4.0 | 9.0 | 0.00 | 0.00 | 0.00 | 35 | 1016.3 |
| 20260905213007 | 80 | 256 | 4.0 | 9.0 | 0.00 | 0.00 | 0.00 | 35 | 1016.4 |
| 20260905212505 | 80 | 273 | 4.0 | 9.0 | 0.00 | 0.00 | 0.00 | 35 | 1016.5 |
| 20260905212006 | 80 | 276 | 3.0 | 9.0 | 0.00 | 0.00 | 0.00 | 35 | 1016.5 |
| 20260905211515 | 81 | 292 | 3.0 | 8.0 | 0.00 | 0.00 | 0.00 | 35 | 1016.5 |
| 20260905211008 | 81 | 296 | 0.0 | 5.0 | 0.00 | 0.00 | 0.00 | 35 | 1016.5 |
| 20260905210508 | 81 | 360 | 1.0 | 5.0 | 0.00 | 0.00 | 0.00 | 35 | 1016.5 |
| 20260905210024 | 81 | 360 | 2.0 | 4.0 | 0.00 | 0.00 | 0.00 | 35 | 1016.5 |
| 20260905205509 | 81 | 360 | 1.0 | 3.0 | 0.00 | 0.00 | 0.00 | 35 | 1016.5 |
| 20260905205013 | 81 | 360 | 0.0 | 3.0 | 0.00 | 0.00 | 0.00 | 36 | 1016.5 |
| 20260905204504 | 81 | 360 | 0.0 | 4.0 | 0.00 | 0.00 | 0.00 | 36 | 1016.5 |
| 20260905204004 | 81 | 360 | 1.0 | 6.0 | 0.00 | 0.00 | 0.00 | 36 | 1016.5 |
| 20260905203504 | 81 | 360 | 2.0 | 6.0 | 0.00 | 0.00 | 0.00 | 36 | 1016.6 |
| 20260905203008 | 81 | 360 | 3.0 | 6.0 | 0.00 | 0.00 | 0.00 | 36 | 1016.5 |
| 20260905202503 | 81 | 360 | 2.0 | 8.0 | 0.00 | 0.00 | 0.00 | 36 | 1016.6 |
| 20260905202003 | 82 | 360 | 1.0 | 8.0 | 0.00 | 0.00 | 0.00 | 36 | 1016.4 |
| 20260905201515 | 82 | 360 | 2.0 | 8.0 | 0.00 | 0.00 | 0.00 | 36 | 1016.5 |
| 20260905201008 | 82 | 360 | 3.0 | 10.0 | 0.00 | 0.00 | 0.00 | 36 | 1016.4 |
| 20260905200507 | 82 | 360 | 3.0 | 13.0 | 0.00 | 0.00 | 0.00 | 36 | 1016.4 |
| 20260905200018 | 82 | 360 | 4.0 | 13.0 | 0.00 | 0.00 | 0.00 | 36 | 1016.4 |
| 20260905195511 | 82 | 360 | 4.0 | 9.0 | 0.00 | 0.00 | 0.00 | 36 | 1016.4 |
| 20260905195013 | 82 | 360 | 4.0 | 9.0 | 0.00 | 0.00 | 0.00 | 36 | 1016.4 |
| 20260905194526 | 82 | 360 | 3.0 | 9.0 | 0.00 | 0.00 | 0.00 | 36 | 1016.5 |
| 20260905194011 | 82 | 360 | 2.0 | 9.0 | 0.00 | 0.00 | 0.00 | 36 | 1016.5 |
| 20260905193513 | 82 | 360 | 3.0 | 9.0 | 0.00 | 0.00 | 0.00 | 35 | 1016.4 |
| 20260905193005 | 83 | 360 | 4.0 | 9.0 | 0.00 | 0.00 | 0.00 | 35 | 1016.4 |
| 20260905192505 | 83 | 360 | 2.0 | 8.0 | 0.00 | 0.00 | 0.00 | 35 | 1016.4 |
| 20260905192003 | 83 | 360 | 4.0 | 8.0 | 0.00 | 0.00 | 0.00 | 35 | 1016.4 |
| 20260905191513 | 83 | 360 | 3.0 | 8.0 | 0.00 | 0.00 | 0.00 | 35 | 1016.4 |
| 20260905191004 | 83 | 360 | 3.0 | 8.0 | 0.00 | 0.00 | 0.00 | 35 | 1016.4 |
| 20260905190504 | 83 | 360 | 3.0 | 10.0 | 0.00 | 0.00 | 0.00 | 35 | 1016.4 |
| 20260905190038 | 83 | 360 | 3.0 | 10.0 | 0.00 | 0.00 | 0.00 | 35 | 1016.3 |
| 20260905185507 | 83 | 360 | 3.0 | 10.0 | 0.00 | 0.00 | 0.00 | 35 | 1016.3 |
| 20260905185009 | 83 | 360 | 4.0 | 12.0 | 0.00 | 0.00 | 0.00 | 35 | 1016.3 |
| 20260905184523 | 83 | 360 | 5.0 | 12.0 | 0.00 | 0.00 | 0.00 | 35 | 1016.3 |
| 20260905184013 | 83 | 360 | 5.0 | 15.0 | 0.00 | 0.00 | 0.00 | 35 | 1016.2 |
| 20260905183510 | 84 | 360 | 6.0 | 15.0 | 0.00 | 0.00 | 0.00 | 35 | 1016.1 |
| 20260905183026 | 84 | 360 | 5.0 | 14.0 | 0.00 | 0.00 | 0.00 | 34 | 1016.2 |
| 20260905182512 | 84 | 360 | 6.0 | 14.0 | 0.00 | 0.00 | 0.00 | 34 | 1016.1 |
| 20260905182014 | 84 | 360 | 6.0 | 14.0 | 0.00 | 0.00 | 0.00 | 34 | 1016.1 |
| 20260905181512 | 84 | 360 | 4.0 | 14.0 | 0.00 | 0.00 | 0.00 | 33 | 1016.0 |
| 20260905181004 | 84 | 360 | 6.0 | 14.0 | 0.00 | 0.00 | 0.00 | 33 | 1016.0 |
| 20260905180506 | 84 | 360 | 7.0 | 14.0 | 0.00 | 0.00 | 0.00 | 33 | 1016.0 |
| 20260905180019 | 84 | 360 | 6.0 | 13.0 | 0.00 | 0.00 | 0.00 | 33 | 1016.0 |
| 20260905175510 | 84 | 360 | 3.0 | 13.0 | 0.00 | 0.00 | 0.00 | 33 | 1016.0 |
| 20260905175010 | 85 | 360 | 6.0 | 13.0 | 0.00 | 0.00 | 0.00 | 33 | 1015.9 |
| 20260905174520 | 85 | 360 | 4.0 | 14.0 | 0.00 | 0.00 | 0.00 | 34 | 1015.9 |
| 20260905174008 | 85 | 360 | 8.0 | 14.0 | 0.00 | 0.00 | 0.00 | 34 | 1015.8 |
| 20260905173511 | 85 | 360 | 7.0 | 13.0 | 0.00 | 0.00 | 0.00 | 34 | 1015.8 |
| 20260905173023 | 85 | 360 | 5.0 | 13.0 | 0.00 | 0.00 | 0.00 | 34 | 1015.7 |
| 20260905172511 | 85 | 360 | 6.0 | 12.0 | 0.00 | 0.00 | 0.00 | 34 | 1015.7 |
| 20260905172012 | 85 | 360 | 5.0 | 12.0 | 0.00 | 0.00 | 0.00 | 34 | 1015.6 |
| 20260905171533 | 85 | 360 | 4.0 | 9.0 | 0.00 | 0.00 | 0.00 | 33 | 1015.5 |
| 20260905171017 | 86 | 360 | 4.0 | 10.0 | 0.00 | 0.00 | 0.00 | 34 | 1015.5 |
| 20260905170503 | 86 | 360 | 5.0 | 11.0 | 0.00 | 0.00 | 0.00 | 34 | 1015.4 |
| 20260905170007 | 86 | 360 | 4.0 | 11.0 | 0.00 | 0.00 | 0.00 | 34 | 1015.4 |
| 20260905165503 | 86 | 360 | 3.0 | 8.0 | 0.00 | 0.00 | 0.00 | 35 | 1015.3 |
| 20260905165008 | 86 | 360 | 3.0 | 12.0 | 0.00 | 0.00 | 0.00 | 35 | 1015.2 |
| 20260905164527 | 86 | 360 | 5.0 | 12.0 | 0.00 | 0.00 | 0.00 | 35 | 1015.2 |
| 20260905164009 | 87 | 360 | 4.0 | 9.0 | 0.00 | 0.00 | 0.00 | 35 | 1015.1 |
| 20260905163512 | 87 | 360 | 4.0 | 9.0 | 0.00 | 0.00 | 0.00 | 35 | 1015.0 |
| 20260905163024 | 87 | 360 | 3.0 | 8.0 | 0.00 | 0.00 | 0.00 | 36 | 1015.0 |
| 20260905162513 | 87 | 360 | 3.0 | 8.0 | 0.00 | 0.00 | 0.00 | 36 | 1015.0 |
| 20260905162012 | 88 | 360 | 4.0 | 10.0 | 0.00 | 0.00 | 0.00 | 36 | 1015.0 |
| 20260905161526 | 88 | 360 | 3.0 | 10.0 | 0.00 | 0.00 | 0.00 | 36 | 1014.9 |
| 20260905161014 | 88 | 360 | 3.0 | 8.0 | 0.00 | 0.00 | 0.00 | 36 | 1014.9 |
| 20260905160514 | 88 | 325 | 3.0 | 8.0 | 0.00 | 0.00 | 0.00 | 36 | 1015.0 |
| 20260905160030 | 89 | 252 | 3.0 | 7.0 | 0.00 | 0.00 | 0.00 | 37 | 1015.0 |
| 20260905155517 | 89 | 264 | 4.0 | 11.0 | 0.00 | 0.00 | 0.00 | 37 | 1014.9 |
| 20260905155004 | 89 | 297 | 5.0 | 12.0 | 0.00 | 0.00 | 0.00 | 37 | 1014.9 |
| 20260905154512 | 89 | 259 | 5.0 | 12.0 | 0.00 | 0.00 | 0.00 | 37 | 1014.9 |
| 20260905154004 | 88 | 269 | 5.0 | 12.0 | 0.00 | 0.00 | 0.00 | 37 | 1014.9 |
| 20260905153509 | 88 | 286 | 5.0 | 11.0 | 0.00 | 0.00 | 0.00 | 38 | 1014.9 |
| 20260905153016 | 87 | 315 | 3.0 | 8.0 | 0.00 | 0.00 | 0.00 | 39 | 1014.8 |
| 20260905152511 | 87 | 326 | 3.0 | 8.0 | 0.00 | 0.00 | 0.00 | 43 | 1014.9 |
| 20260905152012 | 88 | 332 | 3.0 | 8.0 | 0.00 | 0.00 | 0.00 | 46 | 1014.9 |
| 20260905151527 | 89 | 345 | 4.0 | 8.0 | 0.00 | 0.00 | 0.00 | 45 | 1014.9 |
| 20260905151013 | 90 | 329 | 2.0 | 8.0 | 0.00 | 0.00 | 0.00 | 43 | 1014.9 |
| 20260905150515 | 90 | 351 | 4.0 | 8.0 | 0.00 | 0.00 | 0.00 | 41 | 1014.9 |
| 20260905150027 | 91 | 321 | 2.0 | 8.0 | 0.00 | 0.00 | 0.00 | 36 | 1014.9 |
| 20260905145513 | 91 | 302 | 3.0 | 8.0 | 0.00 | 0.00 | 0.00 | 35 | 1014.8 |
| 20260905145015 | 91 | 334 | 3.0 | 9.0 | 0.00 | 0.00 | 0.00 | 35 | 1014.9 |
| 20260905144533 | 91 | 29 | 3.0 | 9.0 | 0.00 | 0.00 | 0.00 | 34 | 1014.9 |
| 20260905144016 | 91 | 349 | 3.0 | 9.0 | 0.00 | 0.00 | 0.00 | 33 | 1014.9 |
| 20260905143504 | 91 | 347 | 4.0 | 8.0 | 0.00 | 0.00 | 0.00 | 33 | 1015.0 |
| 20260905143021 | 91 | 343 | 3.0 | 11.0 | 0.00 | 0.00 | 0.00 | 32 | 1015.0 |
| 20260905142510 | 92 | 288 | 4.0 | 11.0 | 0.00 | 0.00 | 0.00 | 31 | 1015.0 |
| 20260905142010 | 93 | 347 | 4.0 | 10.0 | 0.00 | 0.00 | 0.00 | 28 | 1015.1 |
| 20260905141524 | 93 | 346 | 4.0 | 9.0 | 0.00 | 0.00 | 0.00 | 25 | 1015.1 |
| 20260905141012 | 93 | 313 | 2.0 | 9.0 | 0.00 | 0.00 | 0.00 | 24 | 1015.0 |
| 20260905140511 | 93 | 269 | 2.0 | 13.0 | 0.00 | 0.00 | 0.00 | 24 | 1015.0 |
| 20260905140028 | 92 | 286 | 5.0 | 13.0 | 0.00 | 0.00 | 0.00 | 23 | 1015.0 |
| 20260905135513 | 92 | 319 | 6.0 | 11.0 | 0.00 | 0.00 | 0.00 | 23 | 1015.1 |
| 20260905135015 | 92 | 310 | 6.0 | 11.0 | 0.00 | 0.00 | 0.00 | 24 | 1015.0 |
| 20260905134530 | 92 | 352 | 4.0 | 12.0 | 0.00 | 0.00 | 0.00 | 24 | 1015.1 |
| 20260905134016 | 92 | 352 | 4.0 | 12.0 | 0.00 | 0.00 | 0.00 | 25 | 1015.1 |
| 20260905133515 | 92 | 298 | 8.0 | 12.0 | 0.00 | 0.00 | 0.00 | 24 | 1015.1 |
| 20260905133033 | 92 | 331 | 3.0 | 12.0 | 0.00 | 0.00 | 0.00 | 26 | 1015.1 |
| 20260905132518 | 92 | 313 | 6.0 | 12.0 | 0.00 | 0.00 | 0.00 | 25 | 1015.1 |
| 20260905132008 | 92 | 311 | 6.0 | 12.0 | 0.00 | 0.00 | 0.00 | 26 | 1015.1 |
| 20260905131530 | 92 | 273 | 5.0 | 13.0 | 0.00 | 0.00 | 0.00 | 26 | 1015.2 |
| 20260905131011 | 92 | 329 | 6.0 | 14.0 | 0.00 | 0.00 | 0.00 | 26 | 1015.3 |
| 20260905130513 | 91 | 285 | 5.0 | 14.0 | 0.00 | 0.00 | 0.00 | 26 | 1015.2 |
| 20260905130035 | 92 | 299 | 5.0 | 15.0 | 0.00 | 0.00 | 0.00 | 27 | 1015.2 |
| 20260905125511 | 91 | 286 | 4.0 | 15.0 | 0.00 | 0.00 | 0.00 | 27 | 1015.3 |
| 20260905125016 | 91 | 347 | 6.0 | 13.0 | 0.00 | 0.00 | 0.00 | 27 | 1015.3 |
| 20260905124530 | 91 | 333 | 7.0 | 12.0 | 0.00 | 0.00 | 0.00 | 27 | 1015.3 |
| 20260905124005 | 92 | 292 | 6.0 | 11.0 | 0.00 | 0.00 | 0.00 | 27 | 1015.3 |
| 20260905123504 | 91 | 55 | 3.0 | 13.0 | 0.00 | 0.00 | 0.00 | 27 | 1015.3 |
| 20260905123010 | 91 | 331 | 6.0 | 14.0 | 0.00 | 0.00 | 0.00 | 27 | 1015.3 |
| 20260905122506 | 91 | 291 | 5.0 | 15.0 | 0.00 | 0.00 | 0.00 | 28 | 1015.4 |
| 20260905122010 | 91 | 319 | 5.0 | 15.0 | 0.00 | 0.00 | 0.00 | 28 | 1015.4 |
| 20260905121516 | 91 | 298 | 6.0 | 13.0 | 0.00 | 0.00 | 0.00 | 28 | 1015.4 |
| 20260905121010 | 91 | 307 | 7.0 | 14.0 | 0.00 | 0.00 | 0.00 | 28 | 1015.5 |
| 20260905120508 | 91 | 275 | 4.0 | 14.0 | 0.00 | 0.00 | 0.00 | 28 | 1015.5 |
| 20260905120023 | 91 | 294 | 5.0 | 13.0 | 0.00 | 0.00 | 0.00 | 28 | 1015.5 |
| 20260905115514 | 91 | 310 | 5.0 | 11.0 | 0.00 | 0.00 | 0.00 | 30 | 1015.6 |
| 20260905115004 | 91 | 336 | 5.0 | 11.0 | 0.00 | 0.00 | 0.00 | 31 | 1015.6 |
| 20260905114503 | 90 | 111 | 5.0 | 11.0 | 0.00 | 0.00 | 0.00 | 32 | 1015.7 |
| 20260905114005 | 90 | 325 | 5.0 | 13.0 | 0.00 | 0.00 | 0.00 | 33 | 1015.8 |
| 20260905113504 | 90 | 315 | 6.0 | 13.0 | 0.00 | 0.00 | 0.00 | 34 | 1015.8 |
| 20260905113012 | 90 | 308 | 7.0 | 13.0 | 0.00 | 0.00 | 0.00 | 34 | 1015.9 |
| 20260905112505 | 89 | 320 | 5.0 | 13.0 | 0.00 | 0.00 | 0.00 | 35 | 1015.9 |
| 20260905112010 | 89 | 299 | 5.0 | 13.0 | 0.00 | 0.00 | 0.00 | 35 | 1015.9 |
| 20260905111512 | 89 | 115 | 5.0 | 14.0 | 0.00 | 0.00 | 0.00 | 35 | 1016.0 |
| 20260905111009 | 89 | 109 | 7.0 | 14.0 | 0.00 | 0.00 | 0.00 | 35 | 1016.1 |
| 20260905110509 | 89 | 339 | 6.0 | 15.0 | 0.00 | 0.00 | 0.00 | 35 | 1016.1 |
| 20260905110018 | 88 | 320 | 6.0 | 15.0 | 0.00 | 0.00 | 0.00 | 36 | 1016.2 |
| 20260905105512 | 88 | 329 | 5.0 | 12.0 | 0.00 | 0.00 | 0.00 | 37 | 1016.2 |
| 20260905105009 | 87 | 336 | 6.0 | 12.0 | 0.00 | 0.00 | 0.00 | 38 | 1016.2 |
| 20260905104523 | 87 | 322 | 6.0 | 14.0 | 0.00 | 0.00 | 0.00 | 38 | 1016.2 |
| 20260905104014 | 87 | 317 | 7.0 | 14.0 | 0.00 | 0.00 | 0.00 | 39 | 1016.3 |
| 20260905103504 | 87 | 341 | 6.0 | 14.0 | 0.00 | 0.00 | 0.00 | 40 | 1016.3 |
| 20260905103010 | 87 | 360 | 4.0 | 14.0 | 0.00 | 0.00 | 0.00 | 41 | 1016.4 |
| 20260905102503 | 87 | 325 | 6.0 | 14.0 | 0.00 | 0.00 | 0.00 | 41 | 1016.4 |
| 20260905102003 | 86 | 318 | 6.0 | 14.0 | 0.00 | 0.00 | 0.00 | 42 | 1016.5 |
| 20260905101509 | 86 | 314 | 7.0 | 13.0 | 0.00 | 0.00 | 0.00 | 43 | 1016.5 |
| 20260905101004 | 86 | 335 | 6.0 | 15.0 | 0.00 | 0.00 | 0.00 | 44 | 1016.5 |
| 20260905100511 | 85 | 339 | 5.0 | 15.0 | 0.00 | 0.00 | 0.00 | 44 | 1016.5 |
| 20260905100021 | 85 | 309 | 7.0 | 15.0 | 0.00 | 0.00 | 0.00 | 44 | 1016.5 |
| 20260905095511 | 86 | 360 | 6.0 | 16.0 | 0.00 | 0.00 | 0.00 | 44 | 1016.6 |
| 20260905095009 | 86 | 322 | 7.0 | 16.0 | 0.00 | 0.00 | 0.00 | 44 | 1016.6 |
| 20260905094524 | 86 | 318 | 7.0 | 13.0 | 0.00 | 0.00 | 0.00 | 44 | 1016.6 |
| 20260905094014 | 86 | 333 | 6.0 | 13.0 | 0.00 | 0.00 | 0.00 | 43 | 1016.6 |
| 20260905093514 | 86 | 301 | 5.0 | 13.0 | 0.00 | 0.00 | 0.00 | 43 | 1016.5 |
| 20260905093031 | 85 | 159 | 4.0 | 13.0 | 0.00 | 0.00 | 0.00 | 44 | 1016.6 |
| 20260905092514 | 85 | 317 | 6.0 | 16.0 | 0.00 | 0.00 | 0.00 | 44 | 1016.7 |
| 20260905092005 | 85 | 331 | 7.0 | 16.0 | 0.00 | 0.00 | 0.00 | 44 | 1016.6 |
| 20260905091507 | 85 | 311 | 6.0 | 14.0 | 0.00 | 0.00 | 0.00 | 43 | 1016.6 |
| 20260905091003 | 85 | 345 | 7.0 | 14.0 | 0.00 | 0.00 | 0.00 | 43 | 1016.6 |
| 20260905090503 | 85 | 323 | 7.0 | 13.0 | 0.00 | 0.00 | 0.00 | 43 | 1016.6 |
| 20260905090013 | 85 | 298 | 6.0 | 12.0 | 0.00 | 0.00 | 0.00 | 42 | 1016.7 |
| 20260905085509 | 85 | 326 | 5.0 | 12.0 | 0.00 | 0.00 | 0.00 | 42 | 1016.6 |
| 20260905085011 | 85 | 330 | 4.0 | 12.0 | 0.00 | 0.00 | 0.00 | 41 | 1016.7 |
| 20260905084524 | 85 | 320 | 4.0 | 12.0 | 0.00 | 0.00 | 0.00 | 42 | 1016.7 |
| 20260905084011 | 84 | 360 | 3.0 | 14.0 | 0.00 | 0.00 | 0.00 | 43 | 1016.8 |
| 20260905083509 | 84 | 360 | 6.0 | 14.0 | 0.00 | 0.00 | 0.00 | 43 | 1016.8 |
| 20260905083026 | 84 | 360 | 5.0 | 12.0 | 0.00 | 0.00 | 0.00 | 44 | 1016.8 |